Flag for U.S.A. Weather past 2 weeks in St. Paul, Minnesota, U.S.A.

Now
45 °F

Clear.


Feels Like: 41 °F
Forecast: 44 / 71 °F
Wind: 7 mph from Southeast

Location: St. Paul Downtown Holman Field

Current Time: Apr 1, 2015 at 5:11:04 AM

Latest Report: Apr 1, 2015 at 4:53 AM


Visibility: 10 mi

Pressure: 29.82 "Hg

Humidity: 60%

Dew point: 32 °F

Location of St. PaulLocation

Historic Weather in St. Paul — Graph

°F

St. Paul temperature yesterday

Maximum temperature yesterday: 64 °F (at 3:53 PM)
Minimum temperature yesterday: 31 °F (at 5:53 AM)
Average temperature yesterday: 48 °F

Past Weeks' High & Low Weather Summary

 TemperatureHumidityPressure
High64 °F (Mar 31, 3:53 PM)100% (Mar 31, 3:53 AM)30.53 "Hg (Mar 31, 3:53 AM)
Low19 °F (Mar 27, 5:53 AM)18% (Mar 17, 3:53 PM)29.57 "Hg (Mar 29, 10:53 AM)
Average36 °F58%30.13 "Hg
* Reported Mar 17 3:53 AM — Apr 1 3:53 AM, St. Paul, Weather by CustomWeather, © 2015

Note: Actual official high and low records may vary slightly from our data, if they occured in-between our weather recording intervals... More about our weather records

Advertising

St. Paul weather history for previous 24 hours

 ConditionsComfort  
Time TempWeatherWind HumidityBarometerVisibility
3:53 AM
Wed, Apr 1
44 °FClear.6 mph60%29.84 "Hg10 mi
2:53 AM44 °FClear.8 mph58%29.85 "Hg10 mi
1:53 AM46 °FClear.9 mph51%29.87 "Hg10 mi
12:53 AM46 °FClear.6 mph50%29.87 "Hg10 mi
11:53 PM
Tue, Mar 31
45 °FClear.5 mph58%29.88 "Hg10 mi
10:53 PM48 °FPassing clouds.No wind59%29.89 "Hg10 mi
9:53 PM48 °FClear.No wind56%29.90 "Hg10 mi
8:53 PM51 °FClear.3 mph41%29.90 "Hg10 mi
7:53 PM58 °FSunny.No wind27%29.89 "Hg10 mi
6:53 PM61 °FSunny.8 mph23%29.88 "Hg10 mi
5:53 PM64 °FSunny.8 mph22%29.88 "Hg10 mi
4:53 PM64 °FSunny.9 mph22%29.88 "Hg10 mi
3:53 PM64 °FSunny.10 mph22%29.89 "Hg10 mi
2:53 PM63 °FSunny.10 mph25%29.90 "Hg10 mi
1:53 PM62 °FSunny.16 mph27%29.92 "Hg10 mi
12:53 PM60 °FSunny.15 mph33%29.93 "Hg10 mi
11:53 AM58 °FSunny.13 mph41%29.94 "Hg10 mi
10:53 AM53 °FSunny.6 mph52%29.95 "Hg10 mi
9:53 AM48 °FSunny.8 mph66%29.94 "Hg10 mi
8:53 AM37 °FSunny.3 mph96%29.94 "Hg7 mi
7:53 AM32 °FFog.No wind100%29.93 "Hg0 mi
6:53 AM32 °FIce fog.No wind96%29.91 "Hg0 mi
5:53 AM31 °FIce fog.No wind100%29.90 "Hg6 mi
Weather by CustomWeather, © 2015

See weather overviewHow to use our weather pages